• MPC Preparation (Info)

  • MPEC 2022-K123 : 2022 KO3

    The following Minor Planet Electronic Circular may be linked-to from your own Web pages, but must not otherwise be redistributed electronically.

    A form allowing access to any MPEC is at the bottom of this page.


    Read MPEC 2022-K122 Read MPEC 2022-K124


    M.P.E.C. 2022-K123                                 Issued 2022 May 27, 22:05 UT
    
         The Minor Planet Electronic Circulars contain information on unusual
             minor planets and routine data on comets.  They are published
        on behalf of Division F of the International Astronomical Union by the
              Minor Planet Center, Smithsonian Astrophysical Observatory,
                              Cambridge, MA 02138, U.S.A.
    
                 Prepared using the Tamkin Foundation Computer Network
    
                                  MPC@CFA.HARVARD.EDU
                URL https://www.minorplanetcenter.net/    ISSN 1523-6714
    
                                    2022 KO3                                 
    
    
    Observations:
         K22K03O* C2022 05 26.31720913 57 41.376+00 35 22.66         21.56wUEK123F52
         K22K03O  C2022 05 26.32875513 57 39.527+00 34 39.85         21.37GVEK123F52
         K22K03O  C2022 05 26.34027413 57 37.662+00 33 57.09         21.67wUEK123F52
         K22K03O  C2022 05 26.35185413 57 35.790+00 33 13.90         21.38GVEK123F52
         K22K03O  C2022 05 26.41641213 57 25.597+00 29 08.39         20.83GVEK123F52
         K22K03O  C2022 05 26.41721613 57 25.464+00 29 04.81         20.87GVEK123F52
         K22K03O |C2022 05 27.16769 13 57 08.34 -00 23 22.2          21.0 GVEK123807
         K22K03O |C2022 05 27.16965 13 57 08.00 -00 23 33.2          20.7 GVEK123807
         K22K03O |C2022 05 27.17161 13 57 07.66 -00 23 44.1          21.0 GVEK123807
         K22K03O KC2022 05 27.20684113 57 18.446-00 34 46.02         20.78GVEK123I52
         K22K03O KC2022 05 27.20845113 57 18.158-00 34 55.38         20.94GVEK123I52
         K22K03O KC2022 05 27.21006013 57 17.867-00 35 04.70         21.00GVEK123I52
         K22K03O KC2022 05 27.21166613 57 17.557-00 35 14.53         20.84GVEK123I52
         K22K03O ^C2022 05 27.26496713 57 28.392-00 39 02.71         20.75GVEK123568
         K22K03O ^C2022 05 27.26594313 57 28.210-00 39 08.62         20.89GVEK123568
         K22K03O ^C2022 05 27.26693813 57 28.022-00 39 14.63         20.89GVEK123568
         K22K03O ^C2022 05 27.26791913 57 27.837-00 39 20.56         20.91GVEK123568
         K22K03O ^C2022 05 27.26889713 57 27.655-00 39 26.47         20.81GVEK123568
         K22K03O ^C2022 05 27.26988913 57 27.465-00 39 32.52         20.88GVEK123568
         K22K03O ^C2022 05 27.27086713 57 27.279-00 39 38.41         20.93GVEK123568
         K22K03O ^C2022 05 27.27185713 57 27.092-00 39 44.38         20.87GVEK123568
         K22K03O 1C2022 05 27.88446 13 56 54.60 -01 58 42.8          20.6 VXEK123033
         K22K03O 1C2022 05 27.88527 13 56 54.45 -01 58 50.1          20.6 VXEK123033
         K22K03O 1C2022 05 27.88607 13 56 54.30 -01 58 57.5          20.8 VXEK123033
    
    Observer details:
    033 Karl Schwarzschild Observatory, Tautenburg.  Observers S. Melnikov, C.
        Hoegner, U. Laux, F. Ludwig, B. Stecklum.  Measurer B. Stecklum.  1.34-m
        f/3 Schmidt + CCD.
    568 Mauna Kea.  Observers R. Wainscoat, C. Cunningham, T. Burdullis.
        Measurers R. Weryk, R. Wainscoat.  3.6-m Canada-France-Hawaii Telescope +
        CCD.
    807 Cerro Tololo Observatory, La Serena.  Observers T. Linder, R. Holmes, L.
        Horn.  1.00-m f/10.0 astrograph + CCD.
    F52 Pan-STARRS 2, Haleakala.  Observers J. Bulger, T. Lowe, A. Schultz, I.
        Smith, K. Chambers, T. Dukes.  Measurers K. Chambers, S. Chastel, T. de
        Boer, J. Fairlamb, H. Gao, M. Huber, C.-C. Lin, E. Magnier, Y.
        Ramanjooloo, R. Wainscoat, R. Weryk.  1.8-m Ritchey-Chretien + CCD.
    I52 Steward Observatory, Mt. Lemmon Station.  Observer E. J. Christensen.
        Measurers E. J. Christensen, D. Fay, J. B. Fazekas, D. C. Fuls, A. R.
        Gibbs, A. D. Grauer, H. Groeller, J. K. Hogan, R. A. Kowalski, S. M.
        Larson, G. J. Leonard, D. Rankin, R. L. Seaman, A. Serrano, F. C. Shelly,
        K. W. Wierzchos.  1.0-m prime focus + CCD.
    
    Orbital elements:
    2022 KO3                                                 Earth MOID = 0.0024 AU
    Epoch 2022 Jan. 21.0 TT = JDT 2459600.5                 Veres                   
    M 310.03621              (2000.0)            P               Q                  
    n   0.32586210     Peri.  210.58543     +0.14275374     +0.98730036             
    a   2.0914468      Node    67.69926     -0.89215438     +0.15885425             
    e   0.5365070      Incl.    4.32102     -0.42858130     -0.00182391             
    P   3.02           H   28.05          G   0.15           U   7                  
    Residuals in seconds of arc
    220526 F52  0.1+  0.0     220527 807  0.0   0.0     220527 568  0.0   0.0
    220526 F52  0.0   0.1-    220527 I52  0.1-  0.1+    220527 568  0.0   0.0
    220526 F52  0.1-  0.1-    220527 I52  0.0   0.1+    220527 568  0.0   0.0
    220526 F52  0.0   0.0     220527 I52  0.1+  0.2+    220527 568  0.0   0.0
    220526 F52  0.1+  0.3+    220527 I52  0.0   0.2-    220527 568  0.0   0.0
    220526 F52  0.1-  0.1-    220527 568  0.0   0.0     220527 033  0.1+  0.1+
    220527 807  0.1-  0.0     220527 568  0.0   0.0     220527 033  0.1+  0.1+
    220527 807  0.0   0.1-    220527 568  0.0   0.0     220527 033  0.0   0.1-
    
    Ephemeris:
    2022 KO3                 a,e,i = 2.09, 0.54, 4                   q = 0.9694
    Date    TT    R. A. (2000) Decl.     Delta      r    Elong.  Phase     V
    2022 04 27    14 06 49.6 +02 11 50   0.1992  1.1991   164.0    13.4    25.7
    ...
    2022 05 12    14 01 40.8 +03 22 00   0.1057  1.1046   152.2    25.3    24.5
    ...
    2022 05 20    13 59 17.8 +03 05 56   0.05995 1.0615   145.2    32.9    23.5
    ...
    2022 05 26    13 57 44.5 +00 55 28   0.02640 1.0336   140.9    38.1    21.8
    2022 05 27    13 57 23.2 -00 11 52   0.02085 1.0293   140.6    38.7    21.3
    2022 05 28    13 56 52.8 -02 09 01   0.01532 1.0252   140.7    38.8    20.6
    ...
    2022 06 03    01 59 20.3 -09 47 24   0.01828 1.0029    51.2   128.0    24.9
    ...
    2022 06 11    01 59 42.8 -05 08 19   0.06262 0.9811    55.5   121.5    27.0
    ...
    2022 06 26    02 06 35.7 -03 00 26   0.1450  0.9680    66.5   105.6    27.7
    
    M. P. C. Staff               (C) Copyright 2022 MPC           M.P.E.C. 2022-K123
    


    Read MPEC 2022-K122 Read MPEC 2022-K124


    MPEC number:

    Enter an MPEC number in one of the following forms:

    • 1997-B01 (the full form)
    • J97B01 (the packed version of the full form)
    • B01 (the abbreviated form)